Terug naar catalogus

COSMOS 723

ActiefMilitairLEO
NORAD 7718·PAYLOAD·🇷🇺 Russia

Gelanceerd Apr 2, 1975 vanaf Baikonur Cosmodrome

Loading…

Volgende Passages (komende 24 uur)

TLE

VersSource: Space-Track

Epoch: Sep 14, 2026, 11:00 UTC

1 07718U 75024A   26257.45853491 -.00000093  00000-0 -10120-5 0  9995
2 07718  64.7165  59.7555 0057053 315.7638  43.8868 13.89667732611189

Volg COSMOS 723 in realtime met AllMySat

Download on the App Store